Main page
Satellite images Climate Cyclones Lightning AirportsFAQ Languages Contact Newsletter About
Weather : Europe Africa North America South America Asia Australia-Oceania Others

, Trang, Trang Airport

48567

latitude: , longitude: Thailand, elevation: 07-31N m


METAR: VTST 180200Z 24012KT 9999 FEW020 SCT025 30/25 Q1006 NOSIG